Year,Month,Day,Hour,Minute,Value (Times are PST for temperature in C)
2014,04,30,00,00,10.30
2014,04,30,00,01,10.30
2014,04,30,00,02,10.30
2014,04,30,00,03,10.20
2014,04,30,00,04,10.20
2014,04,30,00,05,10.30
2014,04,30,00,06,10.30
2014,04,30,00,07,10.20
2014,04,30,00,08,10.20
2014,04,30,00,09,10.10
2014,04,30,00,10,10.00
2014,04,30,00,11,9.90
2014,04,30,00,12,9.80
2014,04,30,00,13,9.70
2014,04,30,00,14,9.70
2014,04,30,00,15,9.60
2014,04,30,00,16,9.50
2014,04,30,00,17,9.50
2014,04,30,00,18,9.40
2014,04,30,00,19,9.30
2014,04,30,00,20,9.30
2014,04,30,00,21,9.30
2014,04,30,00,22,9.30
2014,04,30,00,23,9.30
2014,04,30,00,24,9.30
2014,04,30,00,25,9.30
2014,04,30,00,26,9.30
2014,04,30,00,27,9.30
2014,04,30,00,28,9.30
2014,04,30,00,29,9.30
2014,04,30,00,30,9.40
2014,04,30,00,31,9.40
2014,04,30,00,32,9.40
2014,04,30,00,33,9.40
2014,04,30,00,34,9.40
2014,04,30,00,35,9.40
2014,04,30,00,36,9.40
2014,04,30,00,37,9.40
2014,04,30,00,38,9.40
2014,04,30,00,39,9.50
2014,04,30,00,40,9.50
2014,04,30,00,41,9.60
2014,04,30,00,42,9.60
2014,04,30,00,43,9.80
2014,04,30,00,44,9.90
2014,04,30,00,45,9.90
2014,04,30,00,46,9.90
2014,04,30,00,47,9.90
2014,04,30,00,48,9.90
2014,04,30,00,49,9.90
2014,04,30,00,50,9.80
2014,04,30,00,51,9.70
2014,04,30,00,52,9.70
2014,04,30,00,53,9.60
2014,04,30,00,54,9.60
2014,04,30,00,55,9.60
2014,04,30,00,56,9.60
2014,04,30,00,57,9.60
2014,04,30,00,58,9.60
2014,04,30,00,59,9.60
2014,04,30,01,00,9.60
2014,04,30,01,01,9.50
2014,04,30,01,02,9.50
2014,04,30,01,03,9.50
2014,04,30,01,04,9.50
2014,04,30,01,05,9.50
2014,04,30,01,06,9.40
2014,04,30,01,07,9.40
2014,04,30,01,08,9.40
2014,04,30,01,09,9.40
2014,04,30,01,10,9.40
2014,04,30,01,11,9.40
2014,04,30,01,12,9.30
2014,04,30,01,13,9.30
2014,04,30,01,14,9.20
2014,04,30,01,15,9.20
2014,04,30,01,16,9.10
2014,04,30,01,17,9.10
2014,04,30,01,18,9.00
2014,04,30,01,19,9.00
2014,04,30,01,20,9.00
2014,04,30,01,21,9.00
2014,04,30,01,22,9.10
2014,04,30,01,23,9.20
2014,04,30,01,24,9.40
2014,04,30,01,25,9.60
2014,04,30,01,26,9.60
2014,04,30,01,27,9.60
2014,04,30,01,28,9.60
2014,04,30,01,29,9.50
2014,04,30,01,30,9.50
2014,04,30,01,31,9.40
2014,04,30,01,32,9.40
2014,04,30,01,33,9.30
2014,04,30,01,34,9.30
2014,04,30,01,35,9.30
2014,04,30,01,36,9.20
2014,04,30,01,37,9.20
2014,04,30,01,38,9.20
2014,04,30,01,39,9.20
2014,04,30,01,40,9.20
2014,04,30,01,41,9.30
2014,04,30,01,42,9.30
2014,04,30,01,43,9.40
2014,04,30,01,44,9.40
2014,04,30,01,45,9.30
2014,04,30,01,46,9.30
2014,04,30,01,47,9.30
2014,04,30,01,48,9.20
2014,04,30,01,49,9.20
2014,04,30,01,50,9.20
2014,04,30,01,51,9.20
2014,04,30,01,52,9.20
2014,04,30,01,53,9.20
2014,04,30,01,54,9.20
2014,04,30,01,55,9.30
2014,04,30,01,56,9.40
2014,04,30,01,57,9.40
2014,04,30,01,58,9.40
2014,04,30,01,59,9.40
2014,04,30,02,00,9.30
2014,04,30,02,01,9.20
2014,04,30,02,02,9.20
2014,04,30,02,03,9.10
2014,04,30,02,04,9.10
2014,04,30,02,05,9.20
2014,04,30,02,06,9.40
2014,04,30,02,07,9.50
2014,04,30,02,08,9.70
2014,04,30,02,09,9.80
2014,04,30,02,10,9.80
2014,04,30,02,11,9.90
2014,04,30,02,12,9.80
2014,04,30,02,13,9.70
2014,04,30,02,14,9.60
2014,04,30,02,15,9.50
2014,04,30,02,16,9.40
2014,04,30,02,17,9.40
2014,04,30,02,18,9.30
2014,04,30,02,19,9.20
2014,04,30,02,20,9.10
2014,04,30,02,21,9.20
2014,04,30,02,22,9.20
2014,04,30,02,23,9.30
2014,04,30,02,24,9.30
2014,04,30,02,25,9.30
2014,04,30,02,26,9.20
2014,04,30,02,27,9.20
2014,04,30,02,28,9.20
2014,04,30,02,29,9.10
2014,04,30,02,30,9.10
2014,04,30,02,31,9.00
2014,04,30,02,32,8.90
2014,04,30,02,33,8.90
2014,04,30,02,34,8.80
2014,04,30,02,35,8.80
2014,04,30,02,36,8.80
2014,04,30,02,37,8.70
2014,04,30,02,38,8.70
2014,04,30,02,39,8.70
2014,04,30,02,40,8.70
2014,04,30,02,41,8.70
2014,04,30,02,42,8.60
2014,04,30,02,43,8.60
2014,04,30,02,44,8.60
2014,04,30,02,45,8.60
2014,04,30,02,46,8.50
2014,04,30,02,47,8.50
2014,04,30,02,48,8.40
2014,04,30,02,49,8.40
2014,04,30,02,50,8.50
2014,04,30,02,51,8.50
2014,04,30,02,52,8.50
2014,04,30,02,53,8.60
2014,04,30,02,54,8.60
2014,04,30,02,55,8.60
2014,04,30,02,56,8.60
2014,04,30,02,57,8.50
2014,04,30,02,58,8.50
2014,04,30,02,59,8.40
2014,04,30,03,00,8.40
2014,04,30,03,01,8.40
2014,04,30,03,02,8.30
2014,04,30,03,03,8.30
2014,04,30,03,04,8.30
2014,04,30,03,05,8.30
2014,04,30,03,06,8.30
2014,04,30,03,07,8.20
2014,04,30,03,08,8.20
2014,04,30,03,09,8.20
2014,04,30,03,10,8.20
2014,04,30,03,11,8.20
2014,04,30,03,12,8.20
2014,04,30,03,13,8.10
2014,04,30,03,14,8.10
2014,04,30,03,15,8.10
2014,04,30,03,16,8.10
2014,04,30,03,17,8.00
2014,04,30,03,18,8.00
2014,04,30,03,19,7.90
2014,04,30,03,20,7.90
2014,04,30,03,21,7.90
2014,04,30,03,22,7.90
2014,04,30,03,23,7.90
2014,04,30,03,24,7.90
2014,04,30,03,25,7.90
2014,04,30,03,26,8.00
2014,04,30,03,27,8.10
2014,04,30,03,28,8.10
2014,04,30,03,29,8.10
2014,04,30,03,30,8.20
2014,04,30,03,31,8.20
2014,04,30,03,32,8.20
2014,04,30,03,33,8.20
2014,04,30,03,34,8.20
2014,04,30,03,35,8.20
2014,04,30,03,36,8.20
2014,04,30,03,37,8.20
2014,04,30,03,38,8.20
2014,04,30,03,39,8.20
2014,04,30,03,40,8.30
2014,04,30,03,41,8.20
2014,04,30,03,42,8.20
2014,04,30,03,43,8.20
2014,04,30,03,44,8.20
2014,04,30,03,45,8.20
2014,04,30,03,46,8.20
2014,04,30,03,47,8.20
2014,04,30,03,48,8.10
2014,04,30,03,49,8.10
2014,04,30,03,50,8.10
2014,04,30,03,51,8.00
2014,04,30,03,52,8.00
2014,04,30,03,53,8.00
2014,04,30,03,54,8.00
2014,04,30,03,55,8.00
2014,04,30,03,56,8.00
2014,04,30,03,57,7.90
2014,04,30,03,58,7.80
2014,04,30,03,59,7.80
2014,04,30,04,00,7.80
2014,04,30,04,01,7.80
2014,04,30,04,02,7.90
2014,04,30,04,03,7.90
2014,04,30,04,04,8.00
2014,04,30,04,05,8.00
2014,04,30,04,06,8.00
2014,04,30,04,07,7.90
2014,04,30,04,08,7.80
2014,04,30,04,09,7.80
2014,04,30,04,10,7.70
2014,04,30,04,11,7.70
2014,04,30,04,12,7.70
2014,04,30,04,13,7.70
2014,04,30,04,14,7.70
2014,04,30,04,15,7.70
2014,04,30,04,16,7.70
2014,04,30,04,17,7.60
2014,04,30,04,18,7.60
2014,04,30,04,19,7.60
2014,04,30,04,20,7.60
2014,04,30,04,21,7.60
2014,04,30,04,22,7.60
2014,04,30,04,23,7.60
2014,04,30,04,24,7.60
2014,04,30,04,25,7.60
2014,04,30,04,26,7.60
2014,04,30,04,27,7.60
2014,04,30,04,28,7.60
2014,04,30,04,29,7.60
2014,04,30,04,30,7.60
2014,04,30,04,31,7.60
2014,04,30,04,32,7.60
2014,04,30,04,33,7.50
2014,04,30,04,34,7.50
2014,04,30,04,35,7.50
2014,04,30,04,36,7.50
2014,04,30,04,37,7.50
2014,04,30,04,38,7.50
2014,04,30,04,39,7.50
2014,04,30,04,40,7.50
2014,04,30,04,41,7.40
2014,04,30,04,42,7.40
2014,04,30,04,43,7.40
2014,04,30,04,44,7.50
2014,04,30,04,45,7.50
2014,04,30,04,46,7.50
2014,04,30,04,47,7.50
2014,04,30,04,48,7.50
2014,04,30,04,49,7.50
2014,04,30,04,50,7.50
2014,04,30,04,51,7.50
2014,04,30,04,52,7.40
2014,04,30,04,53,7.40
2014,04,30,04,54,7.40
2014,04,30,04,55,7.40
2014,04,30,04,56,7.40
2014,04,30,04,57,7.40
2014,04,30,04,58,7.40
2014,04,30,04,59,7.40
2014,04,30,05,00,7.40
2014,04,30,05,01,7.30
2014,04,30,05,02,7.30
2014,04,30,05,03,7.30
2014,04,30,05,04,7.30
2014,04,30,05,05,7.30
2014,04,30,05,06,7.30
2014,04,30,05,07,7.30
2014,04,30,05,08,7.30
2014,04,30,05,09,7.30
2014,04,30,05,10,7.20
2014,04,30,05,11,7.30
2014,04,30,05,12,7.30
2014,04,30,05,13,7.30
2014,04,30,05,14,7.30
2014,04,30,05,15,7.30
2014,04,30,05,16,7.20
2014,04,30,05,17,7.20
2014,04,30,05,18,7.20
2014,04,30,05,19,7.20
2014,04,30,05,20,7.20
2014,04,30,05,21,7.20
2014,04,30,05,22,7.20
2014,04,30,05,23,7.20
2014,04,30,05,24,7.20
2014,04,30,05,25,7.20
2014,04,30,05,26,7.20
2014,04,30,05,27,7.20
2014,04,30,05,28,7.20
2014,04,30,05,29,7.20
2014,04,30,05,30,7.20
2014,04,30,05,31,7.20
2014,04,30,05,32,7.20
2014,04,30,05,33,7.30
2014,04,30,05,34,7.30
2014,04,30,05,35,7.30
2014,04,30,05,36,7.30
2014,04,30,05,37,7.30
2014,04,30,05,38,7.40
2014,04,30,05,39,7.40
2014,04,30,05,40,7.40
2014,04,30,05,41,7.40
2014,04,30,05,42,7.30
2014,04,30,05,43,7.30
2014,04,30,05,44,7.30
2014,04,30,05,45,7.20
2014,04,30,05,46,7.20
2014,04,30,05,47,7.30
2014,04,30,05,48,7.30
2014,04,30,05,49,7.40
2014,04,30,05,50,7.40
2014,04,30,05,51,7.40
2014,04,30,05,52,7.40
2014,04,30,05,53,7.40
2014,04,30,05,54,7.50
2014,04,30,05,55,7.50
2014,04,30,05,56,7.50
2014,04,30,05,57,7.60
2014,04,30,05,58,7.60
2014,04,30,05,59,7.60
2014,04,30,06,00,7.70
2014,04,30,06,01,7.70
2014,04,30,06,02,7.70
2014,04,30,06,03,7.70
2014,04,30,06,04,7.70
2014,04,30,06,05,7.70
2014,04,30,06,06,7.70
2014,04,30,06,07,7.70
2014,04,30,06,08,7.80
2014,04,30,06,09,7.90
2014,04,30,06,10,7.90
2014,04,30,06,11,7.90
2014,04,30,06,12,7.90
2014,04,30,06,13,7.90
2014,04,30,06,14,7.90
2014,04,30,06,15,8.00
2014,04,30,06,16,8.00
2014,04,30,06,17,7.90
2014,04,30,06,18,7.90
2014,04,30,06,19,7.90
2014,04,30,06,20,7.90
2014,04,30,06,21,7.90
2014,04,30,06,22,7.80
2014,04,30,06,23,7.80
2014,04,30,06,24,7.80
2014,04,30,06,25,7.80
2014,04,30,06,26,7.80
2014,04,30,06,27,7.80
2014,04,30,06,28,7.80
2014,04,30,06,29,7.80
2014,04,30,06,30,7.80
2014,04,30,06,31,7.80
2014,04,30,06,32,7.80
2014,04,30,06,33,7.80
2014,04,30,06,34,7.80
2014,04,30,06,35,7.80
2014,04,30,06,36,7.80
2014,04,30,06,37,7.80
2014,04,30,06,38,7.90
2014,04,30,06,39,7.90
2014,04,30,06,40,7.90
2014,04,30,06,41,7.90
2014,04,30,06,42,7.90
2014,04,30,06,43,7.90
2014,04,30,06,44,8.00
2014,04,30,06,45,8.10
2014,04,30,06,46,8.20
2014,04,30,06,47,8.30
2014,04,30,06,48,8.40
2014,04,30,06,49,8.60
2014,04,30,06,50,8.70
2014,04,30,06,51,8.90
2014,04,30,06,52,9.10
2014,04,30,06,53,9.20
2014,04,30,06,54,9.30
2014,04,30,06,55,9.50
2014,04,30,06,56,9.60
2014,04,30,06,57,9.70
2014,04,30,06,58,9.80
2014,04,30,06,59,9.90
2014,04,30,07,00,10.00
2014,04,30,07,01,10.00
2014,04,30,07,02,10.10
2014,04,30,07,03,10.20
2014,04,30,07,04,10.20
2014,04,30,07,05,10.30
2014,04,30,07,06,10.40
2014,04,30,07,07,10.50
2014,04,30,07,08,10.50
2014,04,30,07,09,10.60
2014,04,30,07,10,10.60
2014,04,30,07,11,10.70
2014,04,30,07,12,10.70
2014,04,30,07,13,10.70
2014,04,30,07,14,10.70
2014,04,30,07,15,10.80
2014,04,30,07,16,10.80
2014,04,30,07,17,10.80
2014,04,30,07,18,10.80
2014,04,30,07,19,10.80
2014,04,30,07,20,10.80
2014,04,30,07,21,10.80
2014,04,30,07,22,10.80
2014,04,30,07,23,10.80
2014,04,30,07,24,10.80
2014,04,30,07,25,10.70
2014,04,30,07,26,10.70
2014,04,30,07,27,10.70
2014,04,30,07,28,10.70
2014,04,30,07,29,10.70
2014,04,30,07,30,10.70
2014,04,30,07,31,10.70
2014,04,30,07,32,10.70
2014,04,30,07,33,10.70
2014,04,30,07,34,10.70
2014,04,30,07,35,10.70
2014,04,30,07,36,10.70
2014,04,30,07,37,10.70
2014,04,30,07,38,10.70
2014,04,30,07,39,10.80
2014,04,30,07,40,10.80
2014,04,30,07,41,10.80
2014,04,30,07,42,10.80
2014,04,30,07,43,10.90
2014,04,30,07,44,10.90
2014,04,30,07,45,11.00
2014,04,30,07,46,11.00
2014,04,30,07,47,11.10
2014,04,30,07,48,11.10
2014,04,30,07,49,11.20
2014,04,30,07,50,11.20
2014,04,30,07,51,11.30
2014,04,30,07,52,11.30
2014,04,30,07,53,11.40
2014,04,30,07,54,11.50
2014,04,30,07,55,11.60
2014,04,30,07,56,11.70
2014,04,30,07,57,11.80
2014,04,30,07,58,11.80
2014,04,30,07,59,11.90
2014,04,30,08,00,11.90
2014,04,30,08,01,12.00
2014,04,30,08,02,12.10
2014,04,30,08,03,12.10
2014,04,30,08,04,12.20
2014,04,30,08,05,12.20
2014,04,30,08,06,12.20
2014,04,30,08,07,12.30
2014,04,30,08,08,12.30
2014,04,30,08,09,12.30
2014,04,30,08,10,12.40
2014,04,30,08,11,12.40
2014,04,30,08,12,12.40
2014,04,30,08,13,12.40
2014,04,30,08,14,12.40
2014,04,30,08,15,12.50
2014,04,30,08,16,12.50
2014,04,30,08,17,12.60
2014,04,30,08,18,12.60
2014,04,30,08,19,12.60
2014,04,30,08,20,12.70
2014,04,30,08,21,12.70
2014,04,30,08,22,12.80
2014,04,30,08,23,12.80
2014,04,30,08,24,12.80
2014,04,30,08,25,12.90
2014,04,30,08,26,12.90
2014,04,30,08,27,13.00
2014,04,30,08,28,13.10
2014,04,30,08,29,13.10
2014,04,30,08,30,13.20
2014,04,30,08,31,13.20
2014,04,30,08,32,13.30
2014,04,30,08,33,13.30
2014,04,30,08,34,13.40
2014,04,30,08,35,13.50
2014,04,30,08,36,13.60
2014,04,30,08,37,13.70
2014,04,30,08,38,13.70
2014,04,30,08,39,13.80
2014,04,30,08,40,13.80
2014,04,30,08,41,13.90
2014,04,30,08,42,14.00
2014,04,30,08,43,14.00
2014,04,30,08,44,14.10
2014,04,30,08,45,14.10
2014,04,30,08,46,14.10
2014,04,30,08,47,14.20
2014,04,30,08,48,14.20
2014,04,30,08,49,14.20
2014,04,30,08,50,14.30
2014,04,30,08,51,14.30
2014,04,30,08,52,14.30
2014,04,30,08,53,14.40
2014,04,30,08,54,14.40
2014,04,30,08,55,14.40
2014,04,30,08,56,14.50
2014,04,30,08,57,14.50
2014,04,30,08,58,14.60
2014,04,30,08,59,14.60
2014,04,30,09,00,14.70
2014,04,30,09,01,14.70
2014,04,30,09,02,14.70
2014,04,30,09,03,14.80
2014,04,30,09,04,14.80
2014,04,30,09,05,14.90
2014,04,30,09,06,15.00
2014,04,30,09,07,15.00
2014,04,30,09,08,15.00
2014,04,30,09,09,15.00
2014,04,30,09,10,15.00
2014,04,30,09,11,15.00
2014,04,30,09,12,15.20
2014,04,30,09,13,15.20
2014,04,30,09,14,15.30
2014,04,30,09,15,15.30
2014,04,30,09,16,15.30
2014,04,30,09,17,15.40
2014,04,30,09,18,15.50
2014,04,30,09,19,15.50
2014,04,30,09,20,15.60
2014,04,30,09,21,15.70
2014,04,30,09,22,15.80
2014,04,30,09,23,15.80
2014,04,30,09,24,15.90
2014,04,30,09,25,16.00
2014,04,30,09,26,16.10
2014,04,30,09,27,16.10
2014,04,30,09,28,16.20
2014,04,30,09,29,16.30
2014,04,30,09,30,16.30
2014,04,30,09,31,16.30
2014,04,30,09,32,16.30
2014,04,30,09,33,16.30
2014,04,30,09,34,16.40
2014,04,30,09,35,16.40
2014,04,30,09,36,16.40
2014,04,30,09,37,16.40
2014,04,30,09,38,16.50
2014,04,30,09,39,16.50
2014,04,30,09,40,16.60
2014,04,30,09,41,16.70
2014,04,30,09,42,16.70
2014,04,30,09,43,16.70
2014,04,30,09,44,16.80
2014,04,30,09,45,16.90
2014,04,30,09,46,16.90
2014,04,30,09,47,16.90
2014,04,30,09,48,16.90
2014,04,30,09,49,16.80
2014,04,30,09,50,16.80
2014,04,30,09,51,16.70
2014,04,30,09,52,16.70
2014,04,30,09,53,16.70
2014,04,30,09,54,16.70
2014,04,30,09,55,16.70
2014,04,30,09,56,16.70
2014,04,30,09,57,16.80
2014,04,30,09,58,16.80
2014,04,30,09,59,16.80
2014,04,30,10,00,16.70
2014,04,30,10,01,16.70
2014,04,30,10,02,16.60
2014,04,30,10,03,16.60
2014,04,30,10,04,16.50
2014,04,30,10,05,16.40
2014,04,30,10,06,16.30
2014,04,30,10,07,16.30
2014,04,30,10,08,16.20
2014,04,30,10,09,16.20
2014,04,30,10,10,16.30
2014,04,30,10,11,16.30
2014,04,30,10,12,16.40
2014,04,30,10,13,16.40
2014,04,30,10,14,16.40
2014,04,30,10,15,16.50
2014,04,30,10,16,16.60
2014,04,30,10,17,16.60
2014,04,30,10,18,16.70
2014,04,30,10,19,16.80
2014,04,30,10,20,16.80
2014,04,30,10,21,16.90
2014,04,30,10,22,17.00
2014,04,30,10,23,17.00
2014,04,30,10,24,17.10
2014,04,30,10,25,17.10
2014,04,30,10,26,17.20
2014,04,30,10,27,17.10
2014,04,30,10,28,17.10
2014,04,30,10,29,17.20
2014,04,30,10,30,17.20
2014,04,30,10,31,17.30
2014,04,30,10,32,17.40
2014,04,30,10,33,17.40
2014,04,30,10,34,17.40
2014,04,30,10,35,17.50
2014,04,30,10,36,17.50
2014,04,30,10,37,17.50
2014,04,30,10,38,17.60
2014,04,30,10,39,17.60
2014,04,30,10,40,17.60
2014,04,30,10,41,17.70
2014,04,30,10,42,17.70
2014,04,30,10,43,17.70
2014,04,30,10,44,17.70
2014,04,30,10,45,17.70
2014,04,30,10,46,17.70
2014,04,30,10,47,17.70
2014,04,30,10,48,17.80
2014,04,30,10,49,17.80
2014,04,30,10,50,17.90
2014,04,30,10,51,17.90
2014,04,30,10,52,18.00
2014,04,30,10,53,18.00
2014,04,30,10,54,18.10
2014,04,30,10,55,18.10
2014,04,30,10,56,18.10
2014,04,30,10,57,18.00
2014,04,30,10,58,18.00
2014,04,30,10,59,17.90
2014,04,30,11,00,17.80
2014,04,30,11,01,17.80
2014,04,30,11,02,17.80
2014,04,30,11,03,17.80
2014,04,30,11,04,17.80
2014,04,30,11,05,17.70
2014,04,30,11,06,17.70
2014,04,30,11,07,17.70
2014,04,30,11,08,17.70
2014,04,30,11,09,17.70
2014,04,30,11,10,17.70
2014,04,30,11,11,17.70
2014,04,30,11,12,17.70
2014,04,30,11,13,17.70
2014,04,30,11,14,17.60
2014,04,30,11,15,17.50
2014,04,30,11,16,17.50
2014,04,30,11,17,17.50
2014,04,30,11,18,17.60
2014,04,30,11,19,17.60
2014,04,30,11,20,17.60
2014,04,30,11,21,17.70
2014,04,30,11,22,17.80
2014,04,30,11,23,17.80
2014,04,30,11,24,17.80
2014,04,30,11,25,17.80
2014,04,30,11,26,17.90
2014,04,30,11,27,17.90
2014,04,30,11,28,17.90
2014,04,30,11,29,18.00
2014,04,30,11,30,18.00
2014,04,30,11,31,18.10
2014,04,30,11,32,18.10
2014,04,30,11,33,18.00
2014,04,30,11,34,17.90
2014,04,30,11,35,17.90
2014,04,30,11,36,17.90
2014,04,30,11,37,18.00
2014,04,30,11,38,18.10
2014,04,30,11,39,18.10
2014,04,30,11,40,18.10
2014,04,30,11,41,18.20
2014,04,30,11,42,18.20
2014,04,30,11,43,18.30
2014,04,30,11,44,18.20
2014,04,30,11,45,18.10
2014,04,30,11,46,18.10
2014,04,30,11,47,18.00
2014,04,30,11,48,18.00
2014,04,30,11,49,18.10
2014,04,30,11,50,18.10
2014,04,30,11,51,18.00
2014,04,30,11,52,18.00
2014,04,30,11,53,18.00
2014,04,30,11,54,18.10
2014,04,30,11,55,18.00
2014,04,30,11,56,18.00
2014,04,30,11,57,18.00
2014,04,30,11,58,18.00
2014,04,30,11,59,18.10
2014,04,30,12,00,18.10
2014,04,30,12,01,18.10
2014,04,30,12,02,18.20
2014,04,30,12,03,18.30
2014,04,30,12,04,18.30
2014,04,30,12,05,18.30
2014,04,30,12,06,18.30
2014,04,30,12,07,18.30
2014,04,30,12,08,18.40
2014,04,30,12,09,18.50
2014,04,30,12,10,18.60
2014,04,30,12,11,18.60
2014,04,30,12,12,18.60
2014,04,30,12,13,18.70
2014,04,30,12,14,18.70
2014,04,30,12,15,18.70
2014,04,30,12,16,18.70
2014,04,30,12,17,18.70
2014,04,30,12,18,18.70
2014,04,30,12,19,18.70
2014,04,30,12,20,18.80
2014,04,30,12,21,18.80
2014,04,30,12,22,18.80
2014,04,30,12,23,18.80
2014,04,30,12,24,18.80
2014,04,30,12,25,18.70
2014,04,30,12,26,18.70
2014,04,30,12,27,18.70
2014,04,30,12,28,18.80
2014,04,30,12,29,18.80
2014,04,30,12,30,18.90
2014,04,30,12,31,18.90
2014,04,30,12,32,18.90
2014,04,30,12,33,18.80
2014,04,30,12,34,18.80
2014,04,30,12,35,18.80
2014,04,30,12,36,18.80
2014,04,30,12,37,18.80
2014,04,30,12,38,18.90
2014,04,30,12,39,18.90
2014,04,30,12,40,18.90
2014,04,30,12,41,18.90
2014,04,30,12,42,18.90
2014,04,30,12,43,18.90
2014,04,30,12,44,18.90
2014,04,30,12,45,18.90
2014,04,30,12,46,18.90
2014,04,30,12,47,19.00
2014,04,30,12,48,19.00
2014,04,30,12,49,19.10
2014,04,30,12,50,19.20
2014,04,30,12,51,19.30
2014,04,30,12,52,19.40
2014,04,30,12,53,19.40
2014,04,30,12,54,19.50
2014,04,30,12,55,19.60
2014,04,30,12,56,19.70
2014,04,30,12,57,19.80
2014,04,30,12,58,19.90
2014,04,30,12,59,19.90
2014,04,30,13,00,20.00
2014,04,30,13,01,20.10
2014,04,30,13,02,20.20
2014,04,30,13,03,20.30
2014,04,30,13,04,20.40
2014,04,30,13,05,20.50
2014,04,30,13,06,20.70
2014,04,30,13,07,20.90
2014,04,30,13,08,21.10
2014,04,30,13,09,21.20
2014,04,30,13,10,21.20
2014,04,30,13,11,21.30
2014,04,30,13,12,21.30
2014,04,30,13,13,21.20
2014,04,30,13,14,21.20
2014,04,30,13,15,21.20
2014,04,30,13,16,21.20
2014,04,30,13,17,21.20
2014,04,30,13,18,21.10
2014,04,30,13,19,21.00
2014,04,30,13,20,20.90
2014,04,30,13,21,20.80
2014,04,30,13,22,20.70
2014,04,30,13,23,20.70
2014,04,30,13,24,20.60
2014,04,30,13,25,20.60
2014,04,30,13,26,20.60
2014,04,30,13,27,20.60
2014,04,30,13,28,20.60
2014,04,30,13,29,20.70
2014,04,30,13,30,20.70
2014,04,30,13,31,20.80
2014,04,30,13,32,20.80
2014,04,30,13,33,20.90
2014,04,30,13,34,20.90
2014,04,30,13,35,20.90
2014,04,30,13,36,20.90
2014,04,30,13,37,20.90
2014,04,30,13,38,21.00
2014,04,30,13,39,21.00
2014,04,30,13,40,21.20
2014,04,30,13,41,21.30
2014,04,30,13,42,21.40
2014,04,30,13,43,21.50
2014,04,30,13,44,21.60
2014,04,30,13,45,21.60
2014,04,30,13,46,21.50
2014,04,30,13,47,21.40
2014,04,30,13,48,21.30
2014,04,30,13,49,21.20
2014,04,30,13,50,21.00
2014,04,30,13,51,20.90
2014,04,30,13,52,20.80
2014,04,30,13,53,20.80
2014,04,30,13,54,20.70
2014,04,30,13,55,20.70
2014,04,30,13,56,20.70
2014,04,30,13,57,20.80
2014,04,30,13,58,20.90
2014,04,30,13,59,21.10
2014,04,30,14,00,21.20
2014,04,30,14,01,21.30
2014,04,30,14,02,21.40
2014,04,30,14,03,21.40
2014,04,30,14,04,21.50
2014,04,30,14,05,21.60
2014,04,30,14,06,21.70
2014,04,30,14,07,21.70
2014,04,30,14,08,21.60
2014,04,30,14,09,21.50
2014,04,30,14,10,21.30
2014,04,30,14,11,21.20
2014,04,30,14,12,21.10
2014,04,30,14,13,21.00
2014,04,30,14,14,20.90
2014,04,30,14,15,20.80
2014,04,30,14,16,20.80
2014,04,30,14,17,20.80
2014,04,30,14,18,20.80
2014,04,30,14,19,20.80
2014,04,30,14,20,20.80
2014,04,30,14,21,20.80
2014,04,30,14,22,20.80
2014,04,30,14,23,20.80
2014,04,30,14,24,20.80
2014,04,30,14,25,20.80
2014,04,30,14,26,20.90
2014,04,30,14,27,21.10
2014,04,30,14,28,21.20
2014,04,30,14,29,21.30
2014,04,30,14,30,21.40
2014,04,30,14,31,21.50
2014,04,30,14,32,21.60
2014,04,30,14,33,21.70
2014,04,30,14,34,21.70
2014,04,30,14,35,21.70
2014,04,30,14,36,21.70
2014,04,30,14,37,21.70
2014,04,30,14,38,21.70
2014,04,30,14,39,21.70
2014,04,30,14,40,21.70
2014,04,30,14,41,21.60
2014,04,30,14,42,21.50
2014,04,30,14,43,21.30
2014,04,30,14,44,21.20
2014,04,30,14,45,21.20
2014,04,30,14,46,21.20
2014,04,30,14,47,21.30
2014,04,30,14,48,21.40
2014,04,30,14,49,21.50
2014,04,30,14,50,21.60
2014,04,30,14,51,21.60
2014,04,30,14,52,21.50
2014,04,30,14,53,21.50
2014,04,30,14,54,21.60
2014,04,30,14,55,21.60
2014,04,30,14,56,21.70
2014,04,30,14,57,21.80
2014,04,30,14,58,21.90
2014,04,30,14,59,22.00
2014,04,30,15,00,22.20
2014,04,30,15,01,22.30
2014,04,30,15,02,22.40
2014,04,30,15,03,22.50
2014,04,30,15,04,22.60
2014,04,30,15,05,22.60
2014,04,30,15,06,22.60
2014,04,30,15,07,22.60
2014,04,30,15,08,22.60
2014,04,30,15,09,22.70
2014,04,30,15,10,22.80
2014,04,30,15,11,22.70
2014,04,30,15,12,22.70
2014,04,30,15,13,22.80
2014,04,30,15,14,22.80
2014,04,30,15,15,22.80
2014,04,30,15,16,22.80
2014,04,30,15,17,22.80
2014,04,30,15,18,22.80
2014,04,30,15,19,22.80
2014,04,30,15,20,22.80
2014,04,30,15,21,22.70
2014,04,30,15,22,22.70
2014,04,30,15,23,22.70
2014,04,30,15,24,22.80
2014,04,30,15,25,22.80
2014,04,30,15,26,22.80
2014,04,30,15,27,22.80
2014,04,30,15,28,22.80
2014,04,30,15,29,22.80
2014,04,30,15,30,22.80
2014,04,30,15,31,22.80
2014,04,30,15,32,22.80
2014,04,30,15,33,22.80
2014,04,30,15,34,22.70
2014,04,30,15,35,22.70
2014,04,30,15,36,22.70
2014,04,30,15,37,22.60
2014,04,30,15,38,22.50
2014,04,30,15,39,22.40
2014,04,30,15,40,22.40
2014,04,30,15,41,22.40
2014,04,30,15,42,22.40
2014,04,30,15,43,22.40
2014,04,30,15,44,22.40
2014,04,30,15,45,22.40
2014,04,30,15,46,22.40
2014,04,30,15,47,22.50
2014,04,30,15,48,22.50
2014,04,30,15,49,22.50
2014,04,30,15,50,22.50
2014,04,30,15,51,22.50
2014,04,30,15,52,22.50
2014,04,30,15,53,22.50
2014,04,30,15,54,22.40
2014,04,30,15,55,22.40
2014,04,30,15,56,22.40
2014,04,30,15,57,22.40
2014,04,30,15,58,22.40
2014,04,30,15,59,22.40
2014,04,30,16,00,22.40
2014,04,30,16,01,22.30
2014,04,30,16,02,22.30
2014,04,30,16,03,22.30
2014,04,30,16,04,22.30
2014,04,30,16,05,22.30
2014,04,30,16,06,22.30
2014,04,30,16,07,22.30
2014,04,30,16,08,22.40
2014,04,30,16,09,22.40
2014,04,30,16,10,22.50
2014,04,30,16,11,22.50
2014,04,30,16,12,22.60
2014,04,30,16,13,22.70
2014,04,30,16,14,22.80
2014,04,30,16,15,22.90
2014,04,30,16,16,23.00
2014,04,30,16,17,23.10
2014,04,30,16,18,23.30
2014,04,30,16,19,23.30
2014,04,30,16,20,23.40
2014,04,30,16,21,23.50
2014,04,30,16,22,23.70
2014,04,30,16,23,23.90
2014,04,30,16,24,24.10
2014,04,30,16,25,24.30
2014,04,30,16,26,24.50
2014,04,30,16,27,24.50
2014,04,30,16,28,24.40
2014,04,30,16,29,24.30
2014,04,30,16,30,24.20
2014,04,30,16,31,24.10
2014,04,30,16,32,23.90
2014,04,30,16,33,23.80
2014,04,30,16,34,23.70
2014,04,30,16,35,23.60
2014,04,30,16,36,23.40
2014,04,30,16,37,23.40
2014,04,30,16,38,23.50
2014,04,30,16,39,23.60
2014,04,30,16,40,23.60
2014,04,30,16,41,23.70
2014,04,30,16,42,23.70
2014,04,30,16,43,23.70
2014,04,30,16,44,23.70
2014,04,30,16,45,23.60
2014,04,30,16,46,23.50
2014,04,30,16,47,23.30
2014,04,30,16,48,23.30
2014,04,30,16,49,23.30
2014,04,30,16,50,23.30
2014,04,30,16,51,23.20
2014,04,30,16,52,23.10
2014,04,30,16,53,23.00
2014,04,30,16,54,23.00
2014,04,30,16,55,23.00
2014,04,30,16,56,23.00
2014,04,30,16,57,23.00
2014,04,30,16,58,23.10
2014,04,30,16,59,23.20
2014,04,30,17,00,23.10
2014,04,30,17,01,23.10
2014,04,30,17,02,23.00
2014,04,30,17,03,23.00
2014,04,30,17,04,22.90
2014,04,30,17,05,22.90
2014,04,30,17,06,22.90
2014,04,30,17,07,23.00
2014,04,30,17,08,23.10
2014,04,30,17,09,23.20
2014,04,30,17,10,23.20
2014,04,30,17,11,23.30
2014,04,30,17,12,23.30
2014,04,30,17,13,23.30
2014,04,30,17,14,23.40
2014,04,30,17,15,23.50
2014,04,30,17,16,23.60
2014,04,30,17,17,23.60
2014,04,30,17,18,23.60
2014,04,30,17,19,23.60
2014,04,30,17,20,23.60
2014,04,30,17,21,23.60
2014,04,30,17,22,23.50
2014,04,30,17,23,23.50
2014,04,30,17,24,23.50
2014,04,30,17,25,23.50
2014,04,30,17,26,23.50
2014,04,30,17,27,23.40
2014,04,30,17,28,23.40
2014,04,30,17,29,23.40
2014,04,30,17,30,23.40
2014,04,30,17,31,23.40
2014,04,30,17,32,23.40
2014,04,30,17,33,23.40
2014,04,30,17,34,23.40
2014,04,30,17,35,23.30
2014,04,30,17,36,23.20
2014,04,30,17,37,23.20